SERIAL,TIME,MODEL,SN(OPTODE),OXYGEN,SATURATION,TEMPERATURE,CALPHASE,TCPHASE,C1RPH,C2RPH,C1AMP,C2AMP,RAWTEMP,CHECK
12,1336128992,4330,862,181.3101959228515600,53.7650985717773440,11.8766498565673830,36.7624282836914060,36.7638893127441400,41.2496910095214840,4.4858021736145020,812.1267700195312000,788.4453125000000000,358.0950927734375000,10601
12,1336130240,4330,862,173.9138031005859400,48.5000381469726560,9.2471323013305660,38.6982688903808600,38.6739311218261700,43.1465301513671900,4.4725952148437500,864.5742187500000000,816.5670166015625000,444.3251953125000000,7059
12,1336132004,4330,862,172.2135925292968800,48.3831901550293000,9.5580606460571290,38.6496009826660160,38.6259193420410160,43.0892601013183600,4.4633412361145020,863.1353149414062000,815.8837280273438000,434.1856994628906000,39158
12,1336132241,4330,862,170.3482055664062500,48.2971687316894500,9.9427318572998050,38.5756301879882800,38.5529289245605500,43.0172615051269500,4.4643249511718750,860.7352294921875000,811.4611206054688000,421.6180114746094000,8412
12,1336132478,4330,862,171.3912048339843800,49.3006591796875000,10.5585603713989260,38.1667709350585940,38.1495285034179700,42.6187400817871100,4.4692149162292480,849.4138183593750000,805.1024169921875000,401.4480895996094000,59612
12,1336132713,4330,862,171.1748962402343800,49.8653717041015600,11.1029701232910160,37.8894805908203100,37.8759193420410160,42.3516197204589840,4.4756999015808105,841.8258056640625000,799.4492797851562000,383.5696105957031000,22181
12,1336132938,4330,862,175.0211944580078000,51.4554786682128900,11.5007495880126950,37.4006385803222660,37.3936004638671900,41.8698387145996100,4.4762420654296875,828.5136718750000000,794.5560302734375000,370.4814147949219000,56070
12,1336133151,4330,862,176.7566986083984400,52.4710807800293000,11.9236698150634770,37.0539398193359400,37.0515098571777340,41.5322990417480500,4.4807891845703125,819.3651733398438000,790.5822143554688000,356.5447082519531000,58245
12,1336133374,4330,862,183.0709075927734400,54.9962081909179700,12.4480895996093750,36.3425903320312500,36.3496398925781250,40.8348808288574200,4.4852452278137210,800.2274169921875000,785.0327148437500000,339.2352905273437500,31873
12,1336133623,4330,862,189.1300964355468800,57.3293800354003900,12.8472604751586910,35.7324218750000000,35.7476005554199200,40.2327613830566400,4.4851531982421875,783.6981201171875000,780.6055297851562000,326.0423889160156000,44496
12,1336133872,4330,862,192.9898071289062500,58.7888603210449200,13.0677204132080080,35.3702697753906250,35.3902816772460940,39.8788909912109400,4.4886088371276855,774.1129150390625000,777.7858276367188000,318.7500000000000000,15016
12,1336134133,4330,862,198.3634033203125000,61.0097198486328100,13.4995603561401370,34.8128585815429700,34.8402900695800800,39.3310699462890600,4.4907760620117190,758.9561157226562000,773.7141113281250000,304.4547119140625000,44443
12,1336134423,4330,862,202.3090057373047000,62.7132606506347660,13.8541898727417000,34.3936500549316400,34.4266700744628900,38.9217185974121100,4.4950489997863770,747.6624145507812000,770.4531860351562000,292.7060852050781000,20952
12,1336134502,4330,862,204.0558013916015600,63.4566917419433600,13.9989099502563480,34.2165794372558600,34.2519493103027340,38.7459411621093750,4.4939880371093750,742.8394775390625000,770.0651855468750000,287.9090881347656000,57415
12,1336134617,4330,862,205.6499023437500000,64.1911163330078100,14.1685199737548830,34.0378494262695300,34.0756111145019500,38.5735816955566400,4.4979710578918460,737.9702148437500000,767.1013183593750000,282.2865905761719000,8550
12,1336134734,4330,862,206.2465057373047000,64.6277008056640600,14.3457403182983400,33.9149093627929700,33.9543113708496100,38.4527702331543000,4.4984660148620605,734.5441284179688000,765.3969726562500000,276.4099121093750000,12184
12,1336134849,4330,862,206.9476013183593800,65.0817337036132800,14.5109395980834960,33.7918701171875000,33.8329010009765600,38.3334693908691400,4.5005650520324710,731.2833862304688000,763.6655273437500000,270.9306945800781000,22129
12,1336134952,4330,862,207.6138000488281200,65.5184936523437500,14.6704597473144530,33.6746597290039060,33.7172584533691400,38.2159309387207000,4.4986648559570310,727.8842163085938000,762.0313720703125000,265.6390991210937500,11388
12,1336135069,4330,862,207.8697052001953000,65.8915328979492200,14.8752298355102540,33.5595016479492200,33.6036300659179700,38.1045417785644500,4.5009078979492190,724.7822875976562000,760.1182861328125000,258.8450012207031000,13675
12,1336135172,4330,862,208.8876037597656200,66.5664291381836000,15.1205501556396480,33.3813095092773440,33.4278182983398440,37.9298706054687500,4.5020518302917480,719.8856811523438000,758.0532836914062000,250.7044982910156200,7218
12,1336135275,4330,862,210.1510009765625000,67.2626495361328100,15.3235797882080080,33.2101516723632800,33.2589302062988300,37.7641906738281250,4.5052571296691895,715.2144775390625000,755.9669189453125000,243.9662933349609400,27282
12,1336135392,4330,862,207.5760955810547000,66.6146697998046900,15.4468002319335940,33.2982215881347660,33.3458290100097660,37.8503417968750000,4.5045089721679690,717.4508056640625000,754.1837768554688000,239.8764953613281200,1722
12,1336135519,4330,862,208.1226959228515600,66.9606781005859400,15.5657596588134770,33.2097206115722660,33.2585105895996100,37.7631492614746100,4.5046458244323730,715.1458129882812000,753.0023193359375000,235.9281005859375000,102
12,1336135648,4330,862,209.3144989013672000,67.5579071044921900,15.7139396667480470,33.0699882507324200,33.1206398010253900,37.6269416809082000,4.5062937736511230,711.4055175781250000,751.6412963867188000,231.0099945068359400,21963
12,1336135787,4330,862,212.4542999267578000,68.8021697998046900,15.8714103698730470,32.8167381286621100,32.8707695007324200,37.3769111633300800,4.5061488151550290,704.4577026367188000,750.1149291992188000,225.7830963134765600,3323
12,1336135971,4330,862,217.2326965332031200,70.6805496215820300,16.0919990539550780,32.4471702575683600,32.5061302185058600,37.0152587890625000,4.5091319084167480,694.4750976562500000,748.2396850585938000,218.4618988037109400,2233
12,1336136093,4330,862,220.3119049072265600,71.8631286621093800,16.2106895446777340,32.2249107360839840,32.2868309020996100,36.7970390319824200,4.5102162361145020,688.4133911132812000,746.8051147460938000,214.5225982666015600,23593
12,1336136220,4330,862,222.6284942626953000,72.9259109497070300,16.4101905822753900,32.0078887939453100,32.0726890563964840,36.5829200744628900,4.5102310180664060,682.6185302734375000,745.2266235351562000,207.9020996093750000,49060
12,1336136349,4330,862,224.7019042968750000,73.9058914184570300,16.6035709381103500,31.8087997436523440,31.8762607574462900,36.3870582580566400,4.5108032226562500,677.0413208007812000,743.5383300781250000,201.4853973388672000,42244
12,1336136476,4330,862,225.9232025146484400,74.6233673095703100,16.8053207397460940,31.6515502929687500,31.7210998535156250,36.2339591979980500,4.5128560066223145,672.6644287109375000,741.5465087890625000,194.7920074462890600,22589
12,1336136617,4330,862,227.6864013671875000,75.4252471923828100,16.9443702697753900,31.4967098236084000,31.5683193206787100,36.0819511413574200,4.5136342048645020,668.5487060546875000,739.9130859375000000,190.1795959472656200,28898
12,1336136756,4330,862,231.1203002929687500,76.7505569458007800,17.0614795684814450,31.2686805725097660,31.3433303833007800,35.8571815490722660,4.5138468742370605,662.4962768554688000,738.6115722656250000,186.2957000732422000,4527
12,1336136916,4330,862,233.1006927490234400,77.7460937500000000,17.2702503204345700,31.0742301940917970,31.1514701843261720,35.6678085327148440,4.5163350105285645,656.8568115234375000,736.9345092773438000,179.3728027343750000,48702
12,1336137029,4330,862,234.0798950195312500,78.2535476684570300,17.3814792633056640,30.9748897552490230,31.0534496307373050,35.5708618164062500,4.5174098014831540,654.3414916992188000,735.8018798828125000,175.6851043701172000,53092
12,1336137144,4330,862,233.3448944091797000,78.1663665771484400,17.4792499542236330,30.9666004180908200,31.0452804565429700,35.5610504150390600,4.5157699584960940,654.1940917968750000,734.7542724609375000,172.4445037841797000,9255
12,1336137249,4330,862,233.7561950683593800,78.4611434936523400,17.5758399963378900,30.9027099609375000,30.9822406768798830,35.4992408752441400,4.5170059204101560,652.3482055664062000,733.9047851562500000,169.2433929443359400,9579
12,1336137352,4330,862,233.6862945556640600,78.6121368408203100,17.6831493377685550,30.8576507568359380,30.9377708435058600,35.4552497863769500,4.5174789428710940,651.1091918945312000,732.8963012695312000,165.6876068115234400,47475
12,1336137467,4330,862,232.8594055175781200,78.5315170288086000,17.8050594329834000,30.8432693481445300,30.9235897064209000,35.4390487670898440,4.5154571533203125,650.9354248046875000,731.9055786132812000,161.6486053466797000,19873
12,1336137585,4330,862,231.4716949462890600,78.3296737670898400,17.9701595306396500,30.8375701904296880,30.9179706573486330,35.4361801147460940,4.5182108879089355,650.8350830078125000,730.7495727539062000,156.1806945800781200,12573
12,1336137736,4330,862,230.6811065673828000,78.6897964477539000,18.3604106903076170,30.7015304565429700,30.7837390899658200,35.3019218444824200,4.5181808471679690,646.9147949218750000,728.1231079101562000,143.2630004882812500,50548
12,1336137815,4330,862,237.9131011962890600,82.2114791870117200,18.9948406219482420,30.0676193237304700,30.1582698822021500,34.6812896728515600,4.5230178833007810,629.4301147460938000,724.3323974609375000,122.2892990112304700,4759
12,1336137917,4330,862,251.7790985107422000,87.5068969726562500,19.2807502746582030,29.3043193817138670,29.4051399230957030,33.9352798461914060,4.5301361083984375,608.1718750000000000,719.5554809570312000,112.8498001098632800,20674
12,1336138052,4330,862,258.4970092773437500,89.9545288085937500,19.3430309295654300,28.9835796356201170,29.0886707305908200,33.6199607849121100,4.5312957763671875,599.4387207031250000,717.7003784179688000,110.7946014404296900,11866
12,1336138181,4330,862,261.7778930664062500,91.1350402832031200,19.3641891479492200,28.8340797424316400,28.9411697387695300,33.4740104675293000,4.5328369140625000,595.5098876953125000,717.1624755859375000,110.0964965820312500,12706
12,1336138316,4330,862,263.6838073730469000,91.8194732666015600,19.3755092620849600,28.7487392425537100,28.8569602966308600,33.3863410949707000,4.5293731689453125,593.1201782226562000,716.9959716796875000,109.7231979370117200,9455
12,1336138461,4330,862,264.4655151367187500,92.1009063720703100,19.3805007934570300,28.7139606475830080,28.8226509094238280,33.3486099243164060,4.5259628295898440,592.2548217773438000,716.9910888671875000,109.5586013793945300,7428
12,1336138608,4330,862,265.1286926269531000,92.3416976928711000,19.3857707977294920,28.6839809417724600,28.7930698394775400,33.3208503723144500,4.5277791023254395,591.6364135742188000,716.9910888671875000,109.3845977783203100,5016
12,1336138771,4330,862,265.4743957519531000,92.4615173339843800,19.3854503631591800,28.6696300506591800,28.7789096832275400,33.3038597106933600,4.5249481201171875,591.2360839843750000,717.0496826171875000,109.3951034545898400,43272
12,1336138899,4330,862,265.4837036132812500,92.4471206665039000,19.3759803771972660,28.6733398437500000,28.7825698852539060,33.3086395263671900,4.5260701179504395,591.6235961914062000,717.1528930664062000,109.7074966430664000,47431
12,1336139007,4330,862,265.1174011230469000,92.3298034667968800,19.3815002441406250,28.6861896514892580,28.7952404022216800,33.3203697204589840,4.5251312255859375,591.8958129882812000,717.1185302734375000,109.5253982543945300,12695
12,1336139114,4330,862,265.9677124023437500,92.6109771728515600,19.3734607696533200,28.6540794372558600,28.7635707855224600,33.2889595031738300,4.5253977775573730,591.3515014648438000,717.2719116210938000,109.7907028198242200,50991
12,1336139206,4330,862,265.9920959472656000,92.6146697998046900,19.3708896636962900,28.6542892456054700,28.7637691497802730,33.2900390625000000,4.5262680053710940,591.2473754882812000,717.2108764648438000,109.8757019042968800,54937
12,1336139304,4330,862,266.1538085937500000,92.6644668579101600,19.3673896789550780,28.6488895416259770,28.7584495544433600,33.2819404602050800,4.5234990119934080,591.2020874023438000,717.4235839843750000,109.9908981323242200,49059
12,1336139403,4330,862,265.8369140625000000,92.5351028442382800,19.3571891784667970,28.6665191650390620,28.7758293151855470,33.2988891601562500,4.5230560302734375,591.9108276367188000,717.6068725585938000,110.3275985717773400,35070
12,1336139493,4330,862,265.5202941894531000,92.4239578247070300,19.3567008972167970,28.6799907684326170,28.7891292572021500,33.3136100769043000,4.5244750976562500,592.4166259765625000,717.7360839843750000,110.3436965942382800,33417
12,1336139619,4330,862,265.7043151855469000,92.4949035644531200,19.3603706359863280,28.6705703735351560,28.7798404693603500,33.3015403747558600,4.5217061042785645,592.2036132812500000,717.9357910156250000,110.2226028442382800,14697
12,1336139745,4330,862,265.8490905761719000,92.5531463623046900,19.3645992279052730,28.6627006530761720,28.7720699310302730,33.2961311340332000,4.5240631103515625,591.9702148437500000,718.0178833007812000,110.0830993652343800,51884
12,1336139828,4330,862,266.6057128906250000,92.8216934204101600,19.3673400878906250,28.6301593780517580,28.7399597167968750,33.2617912292480500,4.5218281745910645,591.3870849609375000,717.9572753906250000,109.9925003051757800,9235
12,1336139883,4330,862,266.5786132812500000,92.8139572143554700,19.3682708740234380,28.6308898925781250,28.7406806945800780,33.2611198425293000,4.5204319953918460,591.2047119140625000,718.9968261718750000,109.9618988037109400,12217
12,1336139938,4330,862,266.8731079101562500,92.9173965454101600,19.3687400817871100,28.6183490753173830,28.7283096313476560,33.2519111633300800,4.5236048698425290,591.0557861328125000,718.9987792968750000,109.9464035034179700,1315
12,1336139993,4330,862,266.9396057128906000,92.9421234130859400,19.3695602416992200,28.6154594421386720,28.7254600524902340,33.2459106445312500,4.5204539299011230,590.9202880859375000,718.9832763671875000,109.9192962646484400,51183
12,1336140048,4330,862,267.1431884765625000,93.0155792236328100,19.3709506988525400,28.6063804626464840,28.7164993286132800,33.2394294738769500,4.5229258537292480,590.8021240234375000,719.0258789062500000,109.8734970092773400,36607
12,1336140105,4330,862,267.3576049804687500,93.0939331054687500,19.3729190826416000,28.5965900421142580,28.7068405151367200,33.2280311584472660,4.5211868286132810,590.5977783203125000,719.0150146484375000,109.8084030151367200,54860
12,1336140160,4330,862,267.5531005859375000,93.1649932861328100,19.3745193481445300,28.5879402160644530,28.6982994079589840,33.2176399230957000,4.5193328857421875,590.3809204101562000,719.0355224609375000,109.7558975219726600,3267
12,1336140215,4330,862,267.9606933593750000,93.3095169067382800,19.3759193420410160,28.5703792572021500,28.6809806823730470,33.2008094787597660,4.5198287963867190,590.0283203125000000,719.1531982421875000,109.7097015380859400,46561
12,1336140270,4330,862,268.3706970214844000,93.4544067382812500,19.3770599365234380,28.5531406402587900,28.6639709472656250,33.1858596801757800,4.5218892097473145,589.5427856445312000,719.1093750000000000,109.6719970703125000,799
12,1336140325,4330,862,268.6989135742187500,93.5706329345703100,19.3780593872070300,28.5390796661376950,28.6500892639160160,33.1687812805175800,4.5186839103698730,589.1921997070312000,719.1212158203125000,109.6389999389648400,62702
12,1336140380,4330,862,269.3138122558594000,93.7906875610351600,19.3812007904052730,28.5125293731689450,28.6238994598388670,33.1453590393066400,4.5214538574218750,588.6652221679688000,719.1594848632812000,109.5354003906250000,54603
12,1336140437,4330,862,269.8338928222656000,93.9787979125976600,19.3848991394042970,28.4897098541259770,28.6013908386230470,33.1214714050293000,4.5200810432434080,587.9935302734375000,719.1461181640625000,109.4133987426757800,48751
12,1336140492,4330,862,270.3019104003906000,94.1525268554687500,19.3905601501464840,28.4681301116943360,28.5800895690917970,33.0999908447265600,4.5198969841003420,587.3411254882812000,719.1397705078125000,109.2266998291015600,24930
12,1336140547,4330,862,270.9325866699219000,94.3803863525390600,19.3948707580566400,28.4404907226562500,28.5528202056884770,33.0724601745605500,4.5196461677551270,586.6160888671875000,719.1870117187500000,109.0842971801757800,33728
12,1336140602,4330,862,271.5636901855469000,94.6153335571289000,19.4027996063232420,28.4114799499511720,28.5241909027099600,33.0447998046875000,4.5206069946289060,585.9130249023438000,719.1824951171875000,108.8229980468750000,4993
12,1336140657,4330,862,272.1589965820312500,94.8330078125000000,19.4081802368164060,28.3852291107177730,28.4982891082763670,33.0183982849121100,4.5201110839843750,585.1801757812500000,719.1544189453125000,108.6453018188476600,20157
12,1336140712,4330,862,272.6525878906250000,95.0122833251953100,19.4119892120361330,28.3635501861572270,28.4769096374511720,32.9953918457031250,4.5184860229492190,584.7056274414062000,719.1437988281250000,108.5197982788086000,43512
12,1336140769,4330,862,273.1669921875000000,95.2076797485351600,19.4204006195068360,28.3392696380615230,28.4529495239257800,32.9722518920898440,4.5193018913269040,584.0178222656250000,719.1552124023438000,108.2423019409179700,11456
12,1336140824,4330,862,273.8673095703125000,95.4679870605468800,19.4288597106933600,28.3073997497558600,28.4214992523193360,32.9408683776855500,4.5193710327148440,583.1323242187500000,719.1676025390625000,107.9633026123046900,1246
12,1336140879,4330,862,274.7156982421875000,95.7810668945312500,19.4378795623779300,28.2696609497070300,28.3842601776123050,32.9041099548339840,4.5198521614074710,582.1577758789062000,719.0598144531250000,107.6658020019531200,11421
12,1336140934,4330,862,275.3078002929687500,96.0076293945312500,19.4483108520507800,28.2416305541992200,28.3566093444824220,32.8779792785644500,4.5213780403137210,581.4396972656250000,718.9901733398438000,107.3217010498046900,30909
12,1336140989,4330,862,276.0924987792969000,96.3051834106445300,19.4606609344482420,28.2050800323486330,28.3205394744873050,32.8404998779296900,4.5199580192565920,580.5233154296875000,718.9487304687500000,106.9141998291015600,16652
12,1336141044,4330,862,276.5159912109375000,96.4718780517578100,19.4704303741455080,28.1840705871582030,28.2998199462890620,32.8187599182128900,4.5189437866210940,579.8131713867188000,718.8836059570312000,106.5920028686523400,27568
12,1336141119,4330,862,277.0758056640625000,96.7260437011718800,19.5007305145263670,28.1490592956542970,28.2652702331542970,32.7838211059570300,4.5185470581054690,578.7551269531250000,718.8695068359375000,105.5926971435546900,23966
12,1336141174,4330,862,277.9450073242187500,97.1107330322265600,19.5424308776855470,28.0972309112548830,28.2141304016113280,32.7348785400390600,4.5207438468933105,577.4799804687500000,718.5504760742188000,104.2179031372070300,57388
12,1336141229,4330,862,278.2177124023437500,97.4115982055664000,19.6477794647216800,28.0422992706298830,28.1599292755126950,32.6799812316894500,4.5200419425964355,575.9849853515625000,718.0902709960938000,100.7449035644531200,50897
12,1336141284,4330,862,278.0143127441406000,97.6939010620117200,19.8289508819580080,27.9743595123291000,28.0928993225097660,32.6151809692382800,4.5222778320312500,574.0214233398438000,716.9705810546875000,94.7750930786132800,63216
12,1336141339,4330,862,276.7622985839844000,97.6606979370117200,20.0381793975830080,27.9363403320312500,28.0553894042968750,32.5789184570312500,4.5235290527343750,572.8438110351562000,715.5269165039062000,87.8862228393554700,53499
12,1336141429,4330,862,275.1192016601562500,97.3936767578125000,20.1999301910400400,27.9341907501220700,28.0532703399658200,32.5809211730957000,4.5276489257812500,572.6555786132812000,712.5679931640625000,82.5641403198242200,27510
12,1336141484,4330,862,274.4247131347656000,97.2443237304687500,20.2499103546142580,27.9410705566406250,28.0600490570068360,32.5900497436523440,4.5299987792968750,572.9127807617188000,712.7932128906250000,80.9202575683593800,49232
12,1336141539,4330,862,273.6336059570312500,97.0544891357421900,20.2969303131103500,27.9528694152832030,28.0716896057128900,32.6012115478515600,4.5295181274414060,573.2407226562500000,712.0410766601562000,79.3741378784179700,12151
12,1336141594,4330,862,273.1419067382812500,96.9011230468750000,20.3078708648681640,27.9681491851806640,28.0867805480957030,32.6177711486816400,4.5309910774230960,573.6093139648438000,711.7141113281250000,79.0144805908203100,48450
12,1336141649,4330,862,272.9801940917969000,96.8656692504882800,20.3192901611328120,27.9698390960693360,28.0884399414062500,32.6191711425781250,4.5307312011718750,573.8358154296875000,711.4191894531250000,78.6389770507812500,64038
12,1336141701,4330,862,272.7585144042969000,96.7963180541992200,20.3241405487060550,27.9765701293945300,28.0950794219970700,32.6251296997070300,4.5300521850585940,573.9442749023438000,711.4473876953125000,78.4796600341796900,19099
12,1336141749,4330,862,273.0534973144531000,96.9117813110351600,20.3297405242919920,27.9624404907226560,28.0811405181884770,32.6140899658203100,4.5329508781433105,573.9312133789062000,711.3034057617188000,78.2955627441406200,46684
12,1336141795,4330,862,273.0533142089844000,96.9261932373046900,20.3372993469238280,27.9594402313232420,28.0781803131103500,32.6103401184082000,4.5321660041809080,573.9376831054688000,711.3012695312500000,78.0470428466796900,62008
12,1336141840,4330,862,272.8269042968750000,96.8438110351562500,20.3362407684326170,27.9689292907714840,28.0875396728515620,32.6183013916015600,4.5307621955871580,574.0844726562500000,711.3385009765625000,78.0816497802734400,35464
12,1336141886,4330,862,273.1148986816406000,96.9666137695312500,20.3469390869140620,27.9528903961181640,28.0717201232910160,32.6034812927246100,4.5317611694335940,573.6953735351562000,711.2670288085938000,77.7299575805664000,17546
12,1336141932,4330,862,273.2327880859375000,97.0785369873046900,20.3833808898925780,27.9330291748046880,28.0521202087402340,32.5814514160156250,4.5293269157409670,573.3383178710938000,711.1558227539062000,76.5322799682617200,50433
12,1336141978,4330,862,272.9419860839844000,97.0083389282226600,20.4006404876709000,27.9375000000000000,28.0565299987792970,32.5877799987793000,4.5312418937683105,573.3950805664062000,711.0604248046875000,75.9650115966796900,571
12,1336142023,4330,862,272.6706848144531000,96.9662704467773400,20.4289398193359380,27.9366493225097660,28.0556907653808600,32.5868606567382800,4.5311660766601560,573.4664916992188000,709.3173828125000000,75.0349273681640600,55530
12,1336142057,4330,862,273.1275939941406000,97.1512069702148400,20.4406509399414060,27.9135093688964840,28.0328598022460940,32.5670509338378900,4.5341868400573730,572.7844238281250000,709.1401977539062000,74.6500091552734400,11933
12,1336143381,4330,862,272.0526123046875000,96.1065063476562500,20.0945091247558600,28.1008491516113280,28.2176990509033200,32.7808189392089840,4.5631098747253420,578.1771240234375000,712.9645996093750000,86.0323715209961000,52685
12,1336143401,4330,862,273.7903137207031000,95.8393630981445300,19.6362991333007800,28.2229595184326170,28.3381900787353500,32.8928108215332000,4.5546259880065920,581.5703125000000000,711.9583129882812000,101.1231002807617200,16115
12,1336143421,4330,862,273.1593933105469000,95.8922805786132800,19.7791004180908200,28.1884403228759770,28.3041191101074220,32.8577804565429700,4.5536580085754395,580.5057983398438000,711.6171875000000000,96.4174880981445300,27944
12,1336143441,4330,862,275.6174926757812500,96.8696670532226600,19.8382701873779300,28.0653095245361330,28.1826400756835940,32.7340812683105500,4.5514369010925290,577.0745849609375000,712.3864135742188000,94.4683380126953100,56200